EW7961 Weather Reports


Display with metric or nautical units.
time (UTC)temp
F
wind
direction
speed
MPH
gust
MPH
rain 1hr
in
rain 24hr
in
rain mn
in
humidity
%
barometer
mb
20260507043019 49 355 2.0 3.0 0.00 0.06 0.00 69 1017.5
20260507042019 50 8 2.0 3.0 0.00 0.06 0.00 68 1017.5
20260507041019 50 3 2.0 3.0 0.00 0.06 0.00 66 1017.4
20260507040100 50 20 2.0 3.0 0.00 0.06 0.00 66 1017.4
20260507035019 51 314 2.0 3.0 0.00 0.06 0.00 65 1017.5
20260507034017 51 7 2.0 3.0 0.00 0.06 0.00 64 1017.5
20260507033017 52 253 3.0 3.0 0.00 0.07 0.00 62 1017.5
20260507032100 52 258 3.0 3.0 0.00 0.07 0.00 60 1017.4
20260507031020 53 247 3.0 3.0 0.00 0.07 0.00 59 1017.3
20260507030017 53 243 3.0 4.0 0.00 0.07 0.00 59 1017.3
20260507025017 53 247 3.0 4.0 0.00 0.07 0.00 58 1017.3
20260507024017 53 0 4.0 5.0 0.00 0.07 0.00 60 1017.3
20260507022021 54 253 3.0 4.0 0.00 0.07 0.00 61 1017.2
20260507021018 54 245 3.0 4.0 0.00 0.08 0.00 58 1017.0
20260507020018 55 257 3.0 4.0 0.00 0.09 0.00 56 1016.8
20260507015018 55 237 3.0 4.0 0.00 0.11 0.00 56 1016.6
20260507014018 56 256 3.0 4.0 0.00 0.12 0.00 54 1016.5
20260507013018 56 341 3.0 5.0 0.00 0.13 0.00 53 1016.3
20260507012018 57 251 3.0 4.0 0.00 0.15 0.00 51 1016.2
20260507010018 58 253 3.0 5.0 0.00 0.18 0.00 49 1015.9
20260507005019 58 277 3.0 5.0 0.00 0.19 0.00 48 1015.7
20260507004019 59 262 3.0 4.0 0.00 0.20 0.00 48 1015.7
20260507003019 59 280 2.0 5.0 0.00 0.20 0.00 46 1015.8
20260507002019 60 334 3.0 6.0 0.00 0.20 0.00 46 1015.8
20260507000019 60 334 3.0 5.0 0.00 0.20 0.00 45 1015.7
20260506235019 60 336 3.0 6.0 0.00 0.21 0.00 46 1015.5
20260506234019 60 308 2.0 4.0 0.00 0.21 0.00 46 1015.5
20260506233100 60 310 2.0 4.0 0.00 0.21 0.00 46 1015.6
20260506232020 61 306 3.0 6.0 0.00 0.26 0.00 45 1015.6
20260506231017 61 268 2.0 3.0 0.00 0.28 0.00 45 1015.6
20260506230020 63 348 2.0 6.0 0.00 0.28 0.00 43 1015.6
20260506225023 64 321 2.0 4.0 0.00 0.28 0.28 42 1015.6
20260506224020 64 340 2.0 4.0 0.00 0.28 0.28 42 1015.7
20260506223020 64 282 2.0 4.0 0.00 0.28 0.28 41 1015.6
20260506222017 63 342 2.0 7.0 0.00 0.28 0.28 42 1015.7
20260506221017 62 358 2.0 4.0 0.00 0.28 0.28 43 1015.7
20260506220020 61 322 2.0 4.0 0.00 0.28 0.28 45 1015.8
20260506215018 62 305 2.0 4.0 0.00 0.28 0.28 43 1015.9
20260506214018 63 13 3.0 7.0 0.00 0.28 0.28 43 1015.9
20260506213018 63 352 2.0 6.0 0.00 0.28 0.28 43 1015.9
20260506212018 63 286 2.0 4.0 0.00 0.28 0.28 42 1015.9
20260506211018 64 320 1.0 3.0 0.00 0.28 0.28 43 1016.0
20260506210018 64 333 2.0 7.0 0.00 0.28 0.28 43 1015.9
20260506205019 63 334 2.0 5.0 0.00 0.29 0.28 42 1016.0
20260506204018 62 329 2.0 3.0 0.00 0.29 0.28 43 1016.2
20260506203022 62 1 2.0 6.0 0.00 0.29 0.28 42 1016.4
20260506202021 62 322 2.0 5.0 0.00 0.29 0.28 44 1016.4
20260506201111 62 329 2.0 3.0 0.00 0.30 0.28 42 1016.4
20260506200142 62 311 2.0 5.0 0.00 0.30 0.28 44 1016.5
20260506195031 62 8 2.0 5.0 0.00 0.30 0.28 43 1016.5
20260506194022 62 297 3.0 7.0 0.00 0.30 0.28 44 1016.5
20260506193031 63 330 2.0 4.0 0.00 0.30 0.28 44 1016.4
20260506192031 63 326 2.0 5.0 0.00 0.30 0.28 44 1016.4
20260506191031 63 299 2.0 5.0 0.00 0.30 0.28 43 1016.2
20260506190031 62 334 2.0 4.0 0.00 0.30 0.28 45 1016.2
20260506185031 61 329 2.0 4.0 0.00 0.30 0.28 47 1016.2
20260506184017 62 271 2.0 3.0 0.00 0.30 0.28 46 1016.1
20260506183017 61 294 1.0 3.0 0.00 0.30 0.28 49 1016.3
20260506182057 60 294 2.0 3.0 0.00 0.30 0.28 50 1016.5
20260506181017 60 316 1.0 3.0 0.00 0.30 0.28 52 1016.7
20260506180017 59 306 2.0 3.0 0.00 0.30 0.28 54 1016.7
20260506175032 59 322 2.0 4.0 0.00 0.30 0.28 55 1016.6
20260506174032 58 309 2.0 4.0 0.00 0.30 0.28 57 1016.6
20260506173033 57 19 2.0 5.0 0.00 0.30 0.28 61 1016.7
20260506172019 57 263 2.0 3.0 0.00 0.30 0.28 66 1016.8
20260506171018 56 328 3.0 6.0 0.00 0.30 0.28 66 1016.8
20260506170018 56 358 4.0 8.0 0.00 0.31 0.28 67 1016.8
20260506165018 56 278 3.0 4.0 0.00 0.31 0.28 71 1016.8
20260506164018 55 271 3.0 6.0 0.00 0.31 0.28 72 1016.8
20260506163018 54 270 3.0 5.0 0.00 0.31 0.28 73 1016.8
20260506162018 54 285 3.0 5.0 0.00 0.31 0.28 74 1016.7
20260506161018 54 253 3.0 5.0 0.00 0.31 0.28 76 1016.5
20260506160138 54 339 5.0 7.0 0.00 0.31 0.28 79 1016.4
20260506155018 54 338 4.0 6.0 0.00 0.31 0.28 79 1016.2
20260506154018 54 263 3.0 5.0 0.00 0.31 0.28 81 1016.2
20260506153018 53 245 4.0 5.0 0.00 0.31 0.28 83 1016.1
20260506152019 53 255 4.0 6.0 0.00 0.31 0.28 84 1016.2
20260506151017 52 261 3.0 4.0 0.00 0.31 0.28 84 1016.0
20260506150057 52 258 4.0 5.0 0.00 0.31 0.28 86 1016.0
20260506145017 51 286 4.0 6.0 0.00 0.31 0.28 87 1015.9
20260506144019 51 295 3.0 6.0 0.00 0.31 0.28 89 1016.1
20260506143025 50 261 3.0 5.0 0.00 0.31 0.28 91 1016.1
20260506142019 50 268 3.0 4.0 0.00 0.31 0.28 92 1016.2
20260506141059 50 338 3.0 4.0 0.00 0.31 0.28 93 1016.2
20260506140017 49 284 3.0 4.0 0.00 0.31 0.28 94 1016.2
20260506135018 49 332 3.0 7.0 0.00 0.31 0.28 95 1016.1
20260506134059 48 317 3.0 3.0 0.00 0.31 0.28 96 1016.2
20260506133058 48 282 2.0 3.0 0.00 0.31 0.28 96 1016.2
20260506132018 48 348 2.0 4.0 0.00 0.31 0.28 96 1016.1
20260506131018 48 312 3.0 4.0 0.00 0.34 0.28 97 1016.0
20260506130018 48 293 2.0 3.0 0.00 0.35 0.28 97 1015.9
20260506125020 48 286 2.0 3.0 0.00 0.36 0.28 97 1016.0
20260506124018 47 325 3.0 3.0 0.00 0.40 0.28 97 1016.0
20260506123059 47 268 3.0 3.0 0.00 0.40 0.28 97 1016.0
20260506122018 47 309 2.0 3.0 0.00 0.40 0.28 97 1015.9
20260506121059 47 358 2.0 3.0 0.00 0.40 0.28 97 1015.8
20260506120059 47 320 2.0 4.0 0.00 0.40 0.28 97 1015.9
20260506115019 47 352 3.0 3.0 0.00 0.41 0.28 97 1015.9
20260506114059 47 323 2.0 3.0 0.00 0.41 0.28 97 1015.8
20260506113019 47 343 3.0 3.0 0.00 0.42 0.28 97 1015.5
20260506112100 47 346 3.0 3.0 0.00 0.42 0.28 97 1015.2
20260506111019 47 279 2.0 3.0 0.00 0.42 0.28 97 1014.7
20260506110020 47 320 2.0 3.0 0.00 0.42 0.28 97 1014.7
20260506105020 47 352 3.0 3.0 0.00 0.42 0.28 97 1014.1
20260506104100 47 321 2.0 3.0 0.00 0.42 0.28 97 1013.9
20260506103100 47 353 2.0 3.0 0.00 0.42 0.28 97 1014.3
20260506102020 47 291 2.0 2.0 0.00 0.42 0.28 97 1014.2
20260506101022 47 279 2.0 2.0 0.00 0.42 0.28 97 1014.2
20260506100020 47 279 2.0 3.0 0.00 0.42 0.28 97 1014.0
20260506095020 47 299 2.0 3.0 0.00 0.50 0.28 97 1013.8
20260506094020 47 284 2.0 3.0 0.00 0.52 0.28 97 1013.9
20260506093101 47 284 2.0 3.0 0.00 0.52 0.28 97 1014.0
20260506092021 47 339 2.0 3.0 0.00 0.52 0.28 97 1014.4
20260506091021 47 351 2.0 3.0 0.00 0.52 0.28 97 1014.5
20260506090021 47 336 2.0 3.0 0.00 0.52 0.28 97 1014.4
20260506085021 47 321 2.0 2.0 0.00 0.52 0.28 96 1014.1
20260506084101 47 290 2.0 3.0 0.00 0.52 0.28 96 1013.9
20260506083021 47 299 2.0 3.0 0.00 0.52 0.28 96 1013.9
20260506082021 47 301 2.0 3.0 0.00 0.52 0.28 96 1013.9
20260506081022 47 1 2.0 3.0 0.00 0.53 0.28 96 1013.8
20260506073022 47 352 2.0 3.0 0.01 0.54 0.28 96 1013.6
20260506072022 47 265 2.0 3.0 0.02 0.54 0.28 96 1013.9
20260506071022 47 329 2.0 3.0 0.03 0.54 0.28 96 1014.2
20260506062023 47 273 2.0 3.0 0.02 0.53 0.26 96 1013.4
20260506061023 47 1 2.0 3.0 0.01 0.52 0.25 96 1013.5
20260506051024 47 289 2.0 3.0 0.02 0.50 0.24 96 1013.5
20260506045024 47 315 2.0 3.0 0.01 0.49 0.23 95 1013.2
20260506044104 47 340 2.0 3.0 0.01 0.49 0.23 95 1013.2